CDT,Max TemperatureF,Mean TemperatureF,Min TemperatureF,Max Dew PointF,MeanDew PointF,Min DewpointF,Max Humidity, Mean Humidity, Min Humidity, Max Sea Level PressureIn, Mean Sea Level PressureIn, Min Sea Level PressureIn, Max VisibilityMiles, Mean VisibilityMiles, Min VisibilityMiles, Max Wind SpeedMPH, Mean Wind SpeedMPH, Max Gust SpeedMPH,PrecipitationIn, CloudCover, Events, WindDirDegrees
2013-4-1,37,26,14,18,15,11,92,65,38,30.40,30.35,30.30,10,10,10,12,6,17,0.00,0,,349
2013-4-2,49,34,18,26,20,15,84,59,34,30.33,30.31,30.27,10,10,10,15,6,21,0.00,0,,124
2013-4-3,71,50,28,35,27,23,85,54,22,30.29,30.10,29.94,10,10,10,24,14,32,0.00,0,,178
2013-4-4,47,38,29,34,28,25,92,69,45,30.25,30.18,30.05,10,10,10,18,13,22,0.00,3,,13
2013-4-5,59,44,29,37,26,18,85,62,38,30.23,29.92,29.52,10,10,10,24,15,35,0.00,3,,119
2013-4-6,66,50,34,40,36,32,96,67,37,29.87,29.66,29.48,10,9,7,25,14,31,0.00,3,,347
2013-4-7,51,43,34,44,36,32,100,81,61,29.91,29.78,29.65,10,6,0,14,6,18,0.06,7,Fog-Rain,89
2013-4-8,44,35,26,43,38,24,100,93,85,30.11,29.79,29.64,10,6,1,30,15,38,0.34,8,Rain-Snow-Thunderstorm,27
2013-4-9,27,22,17,22,16,12,92,80,68,30.30,30.18,30.04,10,4,0,38,25,47,0.27,8,Fog-Rain-Snow,6
2013-4-10,35,30,24,29,23,17,100,81,55,30.25,30.09,29.93,10,7,1,26,16,35,0.27,8,Snow,11
2013-4-11,32,30,28,29,27,25,100,91,71,29.94,29.79,29.71,10,5,0,18,13,36,0.22,8,Fog-Snow,12
2013-4-12,33,29,25,28,26,24,96,86,70,30.01,29.91,29.84,10,9,2,21,14,30,T,8,Snow,323
2013-4-13,36,28,20,30,27,19,100,90,71,30.01,29.86,29.71,10,8,2,24,9,32,0.15,6,Rain-Snow,110
2013-4-14,36,33,30,36,32,27,100,93,85,29.71,29.48,29.34,10,7,1,31,18,41,0.69,8,Rain-Snow,153
2013-4-15,38,33,28,29,28,26,92,81,70,30.13,29.78,29.49,10,9,2,31,19,37,T,7,Snow,287
2013-4-16,43,33,23,28,25,21,92,72,51,30.37,30.26,30.13,10,10,10,16,8,20,0.00,5,,347
2013-4-17,36,32,28,30,28,27,100,88,75,30.37,30.20,30.08,10,8,2,24,16,31,0.05,8,Snow,7
2013-4-18,33,29,25,29,26,19,92,81,69,30.08,29.97,29.90,10,4,0,31,22,38,0.33,7,Fog-Snow,336
2013-4-19,39,30,20,23,20,16,88,68,48,30.16,30.01,29.91,10,10,10,25,14,30,0.00,0,,329
2013-4-20,37,28,18,30,24,17,92,70,47,30.25,30.18,30.11,10,6,0,18,9,25,0.08,6,Fog-Snow,154
2013-4-21,45,36,26,41,33,28,100,85,70,30.23,30.08,29.99,10,10,6,22,11,26,0.09,6,Rain,234
2013-4-22,33,30,27,29,27,21,100,88,75,30.41,30.28,30.19,10,5,0,22,14,26,0.22,7,Fog-Rain-Snow,4
2013-4-23,42,25,8,27,20,8,92,74,55,30.40,30.29,30.15,10,10,10,15,8,25,0.00,1,,287
2013-4-24,46,35,24,37,28,21,92,71,49,30.19,30.07,29.99,10,9,2,32,12,38,0.05,4,Rain-Snow,286
2013-4-25,70,46,22,40,30,20,96,61,25,30.21,30.04,29.82,10,10,10,22,9,28,0.00,0,,175
2013-4-26,74,52,30,40,34,27,100,60,19,30.13,30.04,29.87,10,10,6,17,6,23,0.00,0,,69
2013-4-27,82,61,40,41,33,29,76,46,15,30.12,29.96,29.76,10,10,10,21,11,25,0.00,0,,177
2013-4-28,78,63,48,44,40,37,71,48,24,29.87,29.74,29.68,10,10,10,26,12,36,0.00,0,,10
2013-4-29,76,53,29,45,35,26,92,50,11,29.89,29.67,29.30,10,10,10,22,9,30,0.00,0,,146
2013-4-30,66,56,45,45,34,24,86,55,23,30.06,29.69,29.25,10,10,7,36,17,45,0.00,3,,312